Weather reports worldwide

Advertisment
Loftus, United Kingdom (3275): temperature & dewpoint: 11.12.2017 23:00:00 - 17.12.2017 23:00:00 (GMT)Loftus, United Kingdom (3275): temperature -20cm & temperature -100cm: 11.12.2017 23:00:00 - 17.12.2017 23:00:00 (GMT)Loftus, United Kingdom (3275): wind speed & gusts: 11.12.2017 23:00:00 - 17.12.2017 23:00:00 (GMT)Loftus, United Kingdom (3275): wind direction: 11.12.2017 23:00:00 - 17.12.2017 23:00:00 (GMT)Loftus, United Kingdom (3275): reduced air pressure: 11.12.2017 23:00:00 - 17.12.2017 23:00:00 (GMT)Loftus, United Kingdom (3275): visibility: 11.12.2017 23:00:00 - 17.12.2017 23:00:00 (GMT)Loftus, United Kingdom (3275): precipitation: 11.12.2017 23:00:00 - 17.12.2017 23:00:00 (GMT)
Date & Time tt [°C] td [°C] tt -20cm [°C] tt -100cm [°C] ff [km/h] ff [kn] fx [km/h] fx [kn] dd ppp [hPa] vv [km] rr [mm]
17.12.2017 23:00:00 3,8 -0,2 - - 21 11 - - NW 1020,3 21 0,0
17.12.2017 22:00:00 4,2 -0,2 - - 21 11 - - NW 1019,6 23 0,0
17.12.2017 21:00:00 4,6 0,7 - - 26 14 - - NW 1018,8 20 0,0
17.12.2017 20:00:00 5,2 2,1 - - 28 15 46 25 NW 1017,6 16 0,0
17.12.2017 19:00:00 6,0 3,5 - - 35 19 50 27 NW 1015,8 16 0,0
17.12.2017 18:00:00 6,8 5,4 - - 29 16 - - WNW 1014,0 45 0,0
17.12.2017 17:00:00 7,0 5,9 - - 31 17 46 25 W 1012,9 50 0,0
17.12.2017 16:00:00 7,0 6,1 - - 28 15 - - W 1012,5 50 0,0
17.12.2017 15:00:00 6,4 5,4 - - 29 16 52 28 WSW 1011,6 50 0,0
17.12.2017 14:00:00 4,2 3,7 - - 35 19 65 35 SW 1012,1 13 0,0
17.12.2017 13:00:00 3,4 3,0 - - 35 19 52 28 SSW 1012,9 10 0,0
17.12.2017 12:00:00 2,9 2,6 - - 29 16 46 25 SSW 1015,0 8 1,6
17.12.2017 11:00:00 2,6 2,1 - - 31 17 50 27 SSW 1016,6 6 0,0
17.12.2017 10:00:00 2,0 1,4 - - 28 15 - - SSW 1017,4 5 0,0
17.12.2017 09:00:00 2,0 0,9 3,7 6,2 26 14 - - SSW 1017,9 17 0,0
17.12.2017 08:00:00 2,0 -0,2 - - 15 8 - - SSW 1018,3 45 0,0
17.12.2017 07:00:00 1,8 -1,6 - - 13 7 - - SSW 1019,3 50 0,0
17.12.2017 06:00:00 1,4 -2,8 - - 16 9 - - SW 1020,0 50 0,0
17.12.2017 05:00:00 0,4 -3,5 - - 11 6 - - SSW 1020,6 50 0,0
17.12.2017 04:00:00 -0,7 -3,4 - - 13 7 - - WSW 1021,3 45 0,0
17.12.2017 03:00:00 -0,5 -3,2 - - 5 3 - - SW 1021,6 50 0,0
17.12.2017 02:00:00 -1,4 -3,5 - - 8 4 - - SW 1021,8 40 0,0
17.12.2017 01:00:00 -0,9 -3,2 - - 5 3 - - SW 1021,6 50 0,0
17.12.2017 00:00:00 -0,9 -3,1 - - 8 4 - - W 1021,9 50 -
16.12.2017 23:00:00 -0,8 -2,7 - - 9 5 - - WSW 1021,6 40 0,0
16.12.2017 22:00:00 -0,8 -2,5 - - 9 5 - - W 1021,3 35 0,0
16.12.2017 21:00:00 -0,7 -2,8 - - 9 5 - - WSW 1020,8 27 0,0
16.12.2017 20:00:00 0,0 -2,4 - - 15 8 - - W 1020,3 26 0,0
16.12.2017 19:00:00 0,5 -1,7 - - 18 10 - - WNW 1019,4 21 0,0
16.12.2017 18:00:00 0,5 -1,4 - - 13 7 - - W 1018,8 18 0,0
16.12.2017 17:00:00 1,0 -1,3 - - 16 9 - - WNW 1018,0 16 0,0
16.12.2017 16:00:00 1,2 -1,5 - - 18 10 - - WNW 1017,4 17 0,0
16.12.2017 15:00:00 2,3 -0,7 - - 26 14 - - NW 1016,4 9 0,0
16.12.2017 14:00:00 1,8 -1,1 - - 18 10 - - WNW 1016,3 30 0,0
16.12.2017 13:00:00 1,7 -1,1 - - 18 10 - - WNW 1015,8 16 0,0
16.12.2017 12:00:00 1,3 -1,6 - - 15 8 - - W 1015,5 35 0,0
16.12.2017 11:00:00 0,7 -2,2 - - 15 8 - - W 1015,5 45 0,0
16.12.2017 10:00:00 0,7 -2,8 - - 18 10 - - WNW 1015,1 40 0,0
16.12.2017 09:00:00 0,2 -2,8 3,9 6,2 16 9 - - W 1014,5 45 0,0
16.12.2017 08:00:00 0,0 -2,8 - - 22 12 - - W 1014,1 50 0,0
16.12.2017 07:00:00 0,0 -2,8 - - 18 10 - - WNW 1013,8 40 0,0
16.12.2017 06:00:00 0,1 -2,6 - - 22 12 - - WNW 1013,4 35 0,0
16.12.2017 05:00:00 0,1 -2,2 - - 18 10 - - WNW 1013,1 45 0,0
16.12.2017 04:00:00 0,5 -1,9 - - 21 11 - - WNW 1012,5 30 0,0
16.12.2017 03:00:00 1,0 -1,6 - - 24 13 - - WNW 1012,1 21 0,0
16.12.2017 02:00:00 0,9 -1,5 - - 24 13 - - WNW 1011,7 35 0,0
16.12.2017 01:00:00 0,9 -1,2 - - 21 11 - - WNW 1011,0 29 0,0
16.12.2017 00:00:00 1,0 -1,2 - - 18 10 - - WNW 1010,8 28 0,0
15.12.2017 23:00:00 0,9 -1,0 - - 18 10 - - WNW 1010,3 45 0,0
15.12.2017 22:00:00 1,2 -0,9 - - 21 11 - - WNW 1009,9 35 0,0
15.12.2017 21:00:00 1,7 -0,4 - - 24 13 - - WNW 1009,2 30 0,0
15.12.2017 20:00:00 3,1 1,0 - - 31 17 50 27 NW 1008,5 9 0,2
15.12.2017 19:00:00 3,1 1,9 - - 31 17 50 27 NW 1007,6 12 0,8
15.12.2017 18:00:00 2,8 2,1 - - 34 18 52 28 NNW 1006,5 10 1,8
15.12.2017 17:00:00 2,8 1,0 - - 35 19 57 31 NNW 1005,7 1,8 0,2
15.12.2017 16:00:00 4,6 1,7 - - 35 19 59 32 N 1004,7 13 0,0
15.12.2017 15:00:00 5,3 1,3 - - 34 18 57 31 N 1003,2 17 0,0
15.12.2017 14:00:00 5,4 2,6 - - 35 19 57 31 N 1002,1 13 0,0
15.12.2017 13:00:00 5,4 2,1 - - 35 19 63 34 NNE 1001,1 13 0,2
15.12.2017 12:00:00 4,5 2,8 - - 31 17 52 28 NNE 1000,3 11 0,8
15.12.2017 11:00:00 3,9 3,5 - - 37 20 54 29 NNW 999,2 4,2 0,4
15.12.2017 10:00:00 3,6 3,2 - - 34 18 48 26 NW 998,0 9 0,4
15.12.2017 09:00:00 2,1 1,7 3,9 6,4 29 16 - - NW 997,0 5 2,0
15.12.2017 08:00:00 2,7 2,3 - - 35 19 61 33 NW 995,5 7 0,8
15.12.2017 07:00:00 2,7 2,2 - - 42 23 61 33 NNW 994,2 6 1,2
15.12.2017 06:00:00 4,5 2,1 - - 28 15 48 26 NNW 992,7 22 0,0
15.12.2017 05:00:00 4,0 1,6 - - 31 17 65 35 N 991,0 35 0,2
15.12.2017 04:00:00 4,6 1,5 - - 34 18 52 28 N 989,6 30 0,0
15.12.2017 03:00:00 4,6 0,0 - - 34 18 50 27 N 988,3 35 0,0
15.12.2017 02:00:00 4,6 2,0 - - 29 16 50 27 N 986,9 45 0,2
15.12.2017 01:00:00 3,1 2,5 - - 24 13 54 29 NNW 985,9 8 0,8
15.12.2017 00:00:00 2,4 2,0 - - 26 14 - - NW 985,3 6 0,0
14.12.2017 23:00:00 1,4 0,4 - - 26 14 - - WNW 984,6 19 0,0
14.12.2017 22:00:00 1,3 0,3 - - 24 13 - - WNW 983,8 20 0,0
14.12.2017 21:00:00 1,6 0,8 - - 24 13 - - WNW 983,1 22 0,0
14.12.2017 20:00:00 1,9 1,0 - - 24 13 - - WNW 982,6 35 0,2
14.12.2017 19:00:00 2,1 1,4 - - 28 15 - - WNW 981,9 8 0,0
14.12.2017 18:00:00 2,3 1,8 - - 26 14 - - W 981,2 30 0,4
14.12.2017 17:00:00 2,6 2,1 - - 22 12 - - WSW 980,8 3,5 1,2
14.12.2017 16:00:00 3,2 2,1 - - 26 14 - - SSW 980,7 13 0,0
14.12.2017 15:00:00 3,3 1,6 - - 26 14 - - SSW 981,1 35 0,0
14.12.2017 14:00:00 3,5 1,7 - - 24 13 - - SW 981,4 22 0,0
14.12.2017 13:00:00 3,6 1,4 - - 31 17 46 25 SW 981,8 25 0,0
14.12.2017 12:00:00 4,3 1,3 - - 29 16 46 25 SW 982,4 24 0,0
14.12.2017 11:00:00 3,3 0,7 - - 26 14 - - SW 983,4 27 0,0
14.12.2017 10:00:00 2,0 0,2 - - 21 11 - - SW 983,8 45 0,0
14.12.2017 09:00:00 2,0 0,1 3,9 6,7 22 12 - - SW 983,8 35 0,0
14.12.2017 08:00:00 1,2 -1,0 - - 22 12 - - SSW 983,8 35 0,0
14.12.2017 07:00:00 0,7 -2,0 - - 21 11 - - SSW 983,8 45 0,0
14.12.2017 06:00:00 1,1 -1,7 - - 22 12 - - W 983,8 50 0,0
14.12.2017 05:00:00 0,9 -1,5 - - 29 16 - - W 983,9 50 0,0
14.12.2017 04:00:00 1,0 -1,3 - - 35 19 46 25 W 984,0 50 0,0
14.12.2017 03:00:00 1,0 -0,9 - - 31 17 - - W 984,0 50 0,0
14.12.2017 02:00:00 1,1 -1,3 - - 28 15 46 25 W 983,8 50 0,0
14.12.2017 01:00:00 1,0 -1,0 - - 28 15 - - W 983,7 45 0,0
14.12.2017 00:00:00 1,2 -0,6 - - 28 15 - - W 983,8 50 0,0
13.12.2017 23:00:00 1,1 -0,6 - - 26 14 - - W 983,4 40 0,0
13.12.2017 22:00:00 1,1 -0,8 - - 22 12 - - W 983,3 40 0,0
13.12.2017 21:00:00 1,3 -0,9 - - 24 13 - - W 983,1 35 0,0
13.12.2017 20:00:00 1,1 -0,7 - - 22 12 - - W 983,4 45 0,0
13.12.2017 19:00:00 1,3 -0,3 - - 24 13 - - W 983,8 30 0,0
13.12.2017 18:00:00 1,7 -0,6 - - 22 12 46 25 W 983,9 45 0,0
13.12.2017 17:00:00 2,1 -0,2 - - 26 14 - - W 984,2 45 0,0
13.12.2017 16:00:00 2,3 1,1 - - 21 11 - - W 984,3 50 0,0
13.12.2017 15:00:00 3,1 1,8 - - 22 12 - - WSW 984,8 50 0,0
13.12.2017 14:00:00 2,9 2,3 - - 21 11 63 34 WSW 985,3 50 1,2
13.12.2017 13:00:00 3,8 3,0 - - 44 24 68 37 WSW 985,7 8 1,0
13.12.2017 12:00:00 5,5 4,4 - - 31 17 50 27 SSW 986,2 9 0,0
13.12.2017 11:00:00 4,8 3,4 - - 37 20 54 29 SSW 987,9 13 0,0
13.12.2017 10:00:00 4,3 3,3 - - 35 19 48 26 SW 989,6 16 0,0
13.12.2017 09:00:00 4,2 2,9 3,7 6,7 34 18 52 28 SW 990,8 24 0,0
13.12.2017 08:00:00 4,3 2,6 - - 41 22 54 29 SW 991,4 20 0,0
13.12.2017 07:00:00 3,7 2,3 - - 22 12 - - SW 992,7 17 0,0
13.12.2017 06:00:00 3,1 1,9 - - 18 10 - - SW 994,2 16 0,0
13.12.2017 05:00:00 2,8 1,9 - - 16 9 - - WSW 995,0 15 0,0
13.12.2017 04:00:00 2,6 2,0 - - 15 8 - - WSW 995,7 14 0,0
13.12.2017 03:00:00 2,0 1,4 - - 21 11 - - SW 996,2 11 0,0
13.12.2017 02:00:00 1,8 1,4 - - 21 11 - - SW 996,3 9 0,0
13.12.2017 01:00:00 1,9 1,5 - - 24 13 - - SW 996,6 7 0,0
13.12.2017 00:00:00 1,8 1,3 - - 34 18 63 34 SW 997,0 8 0,0
12.12.2017 23:00:00 1,6 1,0 - - 39 21 68 37 SSW 997,0 9 0,0
12.12.2017 22:00:00 1,4 0,6 - - 50 27 65 35 S 997,4 13 0,2
12.12.2017 21:00:00 1,6 0,8 - - 39 21 54 29 S 999,1 12 0,0
12.12.2017 20:00:00 1,4 0,5 - - 29 16 - - S 1000,9 10 0,4
12.12.2017 19:00:00 1,4 0,0 - - 31 17 46 25 SSW 1002,0 10 0,0
12.12.2017 18:00:00 1,2 -0,2 - - 24 13 - - SSW 1002,2 11 0,0
12.12.2017 17:00:00 1,2 -0,1 - - 26 14 - - SSW 1002,9 9 0,0
12.12.2017 16:00:00 1,3 -0,1 - - 24 13 - - SSW 1003,2 14 0,0
12.12.2017 15:00:00 1,5 -0,4 - - 18 10 - - SW 1003,5 24 0,0
12.12.2017 14:00:00 3,2 0,1 - - 21 11 - - WSW 1003,9 40 0,0
12.12.2017 13:00:00 1,8 -1,1 - - 16 9 - - SW 1004,1 50 0,0
12.12.2017 12:00:00 1,8 -0,8 - - 15 8 - - WSW 1004,5 40 0,0
12.12.2017 11:00:00 1,5 -1,0 - - 16 9 - - SW 1004,7 40 0,0
12.12.2017 10:00:00 0,8 -1,2 - - 16 9 - - WSW 1004,6 25 0,0
12.12.2017 09:00:00 -1,5 -2,5 3,9 7,0 11 6 - - SW 1004,6 20 0,0
12.12.2017 08:00:00 -1,6 -2,6 - - 13 7 - - SW 1004,1 24 0,0
12.12.2017 07:00:00 -1,2 -2,2 - - 8 4 - - SSW 1003,3 23 0,0
12.12.2017 06:00:00 -1,0 -1,8 - - 15 8 - - WSW 1003,0 17 0,0
12.12.2017 05:00:00 -0,2 -0,8 - - 26 14 - - W 1002,7 19 0,0
12.12.2017 04:00:00 -1,0 -1,5 - - 16 9 - - W 1002,1 10 0,0
12.12.2017 03:00:00 -0,7 -1,1 - - 11 6 - - WSW 1001,5 10 0,0
12.12.2017 02:00:00 -0,4 -0,8 - - 11 6 - - WSW 1000,2 9 0,0
12.12.2017 01:00:00 0,2 -0,4 - - 8 4 - - W 999,0 12 0,0
12.12.2017 00:00:00 1,6 1,0 - - 18 10 - - NW 998,3 17 0,0
11.12.2017 23:00:00 1,5 1,1 - - 21 11 - - NW 997,6 10 0,4

tt = temperature
td = dewpoint
tt -20cm = temperature -20cm
tt -100cm = temperature -100cm
ff = wind speed
fx = gusts
dd = wind direction
ppp = reduced air pressure
vv = visibility
rr = precipitation

Next stations